Skip Page Navigation
NASA JPL Caltech
NASA Logo - Jet Propulsion Laboratory + View the NASA Portal
+ Center for Near-Earth Object Studies
JPL Home Earth Solar System Stars & Galaxies Technology
JPL Solar System Dynamics
BODIES ORBITS EPHEMERIDES TOOLS PHYSICAL DATA DISCOVERY FAQ SITE MAP
JPL Small-Body Database Browser
Search: [ help ]  
344124 (1999 VB212)
Classification: Main-belt Asteroid          SPK-ID: 2344124
Ephemeris | Orbit Diagram | Orbital Elements | Mission Design | Physical Parameters | Discovery Circumstances ]

[ show orbit diagram ]
Orbital Elements at Epoch 2459000.5 (2020-May-31.0) TDB
Reference: JPL 11 (heliocentric ecliptic J2000)
 Element Value Uncertainty (1-sigma)   Units 
e .05694194964025581 6.5202e-08  
a 2.18380329363677 1.3837e-08 au
q 2.059453276466281 1.4592e-07 au
i 2.511987129701113 6.805e-06 deg
node 64.87791354648752 0.00014762 deg
peri 358.3236905139163 0.00015962 deg
M 123.2994535563052 6.3072e-05 deg
tp 2458596.782706621321
(2019-Apr-23.28270662)
0.00020505 TDB
period 1178.741846977896
3.23
1.1203e-05
3.067e-08
d
yr
n .3054103838961703 2.9028e-09 deg/d
Q 2.30815331080726 1.4625e-08 au
  Orbit Determination Parameters
   # obs. used (total)      140  
   data-arc span      7373 days (20.19 yr)  
   first obs. used      1999-11-12  
   last obs. used      2020-01-19  
   planetary ephem.      DE431  
   SB-pert. ephem.      SB431-N16  
   condition code      0  
   norm. resid. RMS      .54544  
   source      ORB  
   producer      Otto Matic  
   solution date      2020-Feb-25 23:00:29  

Additional Information
 Earth MOID = 1.07235 au 
 Jupiter MOID = 2.82864 au 
 T_jup = 3.675 
[ show covariance matrix ]

Ephemeris | Orbit Diagram | Orbital Elements | Mission Design | Physical Parameters | Discovery Circumstances ]

Physical Parameter Table
Parameter Symbol Value Units Sigma Reference Notes
absolute magnitude H 17.9   n/a MPO455506  

344124 (1999 VB212)          Discovered 1999-Nov-12 by LINEAR at Socorro
Reference: 20121128/Numbers.arcLast Updated: 2012-12-03

Alternate Designations
 1999 VB212 = 1999 WH27 = 2002 UW65 
Ephemeris | Orbit Diagram | Orbital Elements | Mission Design | Physical Parameters | Discovery Circumstances ]
ABOUT SSD CREDITS/AWARDS PRIVACY/COPYRIGHT GLOSSARY LINKS
FirstGov 2020-Aug-09 06:19 UT
(server date/time)  
NASA Home Page
Site Manager:   Ryan S. Park
Webmaster  Alan B. Chamberlin